Precipitable_Water
0.26 0.19 0.16 0.16 0.18 0.19 0.18 0.18 0.17 0.17 0.17 0.17 0.16 0.16 0.17 0.18 0.18 0.19 0.18 0.21 0.21 0.19 0.16 0.14 0.14 0.15 0.16 0.17 0.17 0.17 0.19 0.27 0.37 0.45 0.57 0.62 0.67 0.70 0.75 0.74 0.75 0.76 0.78 0.90 0.94 0.97 1.00 1.02 1.05 1.09 1.09 1.08 1.14 1.18 1.22 1.24 1.27 1.30 1.31 1.32 1.31 1.37 1.37 1.33 1.31 1.29 1.26 1.22 1.23 1.26 1.19 1.17 1.22 1.23 1.28 1.27 1.25 1.23 1.21 1.19 1.18 1.12 1.08 1.07 1.03 1.03
0.24 0.17 0.16 0.18 0.19 0.19 0.19 0.18 0.18 0.17 0.17 0.16 0.15 0.15 0.16 0.18 0.17 0.20 0.21 0.23 0.27 0.24 0.19 0.19 0.17 0.15 0.15 0.17 0.18 0.18 0.18 0.20 0.33 0.44 0.49 0.57 0.68 0.74 0.75 0.74 0.75 0.80 0.89 0.90 0.89 0.96 0.99 1.01 1.06 1.09 1.08 1.07 1.04 1.13 1.17 1.14 1.20 1.27 1.32 1.31 1.31 1.34 1.32 1.31 1.29 1.26 1.25 1.23 1.17 1.14 1.14 1.17 1.19 1.16 1.15 1.15 1.20 1.19 1.17 1.17 1.14 1.12 1.09 1.06 1.03 1.01
0.19 0.16 0.17 0.19 0.20 0.20 0.19 0.18 0.18 0.17 0.16 0.16 0.16 0.17 0.17 0.19 0.20 0.23 0.23 0.25 0.28 0.26 0.19 0.20 0.18 0.16 0.15 0.16 0.18 0.18 0.18 0.19 0.26 0.41 0.48 0.55 0.63 0.73 0.75 0.74 0.76 0.80 0.81 0.87 0.89 0.92 0.94 0.99 1.02 1.03 1.03 1.04 1.07 1.07 1.12 1.19 1.22 1.25 1.27 1.30 1.31 1.31 1.31 1.30 1.29 1.25 1.24 1.26 1.21 1.17 1.16 1.13 1.10 1.18 1.21 1.20 1.18 1.17 1.12 1.11 1.08 1.05 1.02 1.05 1.06 1.07
0.17 0.17 0.18 0.20 0.20 0.19 0.18 0.18 0.18 0.18 0.19 0.18 0.19 0.18 0.17 0.20 0.19 0.17 0.22 0.26 0.28 0.26 0.20 0.19 0.17 0.16 0.17 0.17 0.18 0.21 0.25 0.25 0.31 0.44 0.54 0.61 0.64 0.69 0.70 0.74 0.77 0.79 0.79 0.79 0.81 0.85 0.92 0.95 0.95 0.99 1.02 1.04 1.08 1.07 1.12 1.17 1.19 1.22 1.25 1.27 1.29 1.31 1.32 1.28 1.26 1.22 1.25 1.23 1.21 1.20 1.17 1.17 1.13 1.08 1.15 1.10 1.03 0.99 0.93 0.87 0.90 0.95 1.01 1.05 1.07 1.10
0.17 0.20 0.22 0.22 0.22 0.20 0.17 0.17 0.18 0.18 0.18 0.20 0.21 0.20 0.19 0.21 0.23 0.23 0.24 0.26 0.26 0.25 0.23 0.19 0.17 0.16 0.17 0.15 0.18 0.30 0.34 0.37 0.45 0.53 0.62 0.71 0.76 0.79 0.83 0.85 0.83 0.77 0.77 0.77 0.81 0.86 0.90 0.89 0.90 0.95 1.00 1.05 1.03 1.04 1.08 1.15 1.18 1.21 1.24 1.28 1.30 1.32 1.32 1.30 1.26 1.23 1.22 1.23 1.19 1.19 1.18 1.19 1.14 1.13 1.06 0.92 0.79 0.74 0.75 0.77 0.80 0.84 0.91 0.92 0.92 0.94
0.20 0.24 0.25 0.23 0.23 0.22 0.21 0.19 0.19 0.20 0.18 0.19 0.22 0.24 0.25 0.27 0.26 0.25 0.26 0.24 0.22 0.20 0.21 0.18 0.13 0.13 0.16 0.17 0.18 0.32 0.32 0.41 0.55 0.52 0.61 0.68 0.74 0.78 0.77 0.77 0.83 0.83 0.83 0.80 0.81 0.83 0.87 0.86 0.93 0.99 1.00 1.00 1.04 1.07 1.15 1.22 1.23 1.25 1.27 1.31 1.34 1.34 1.33 1.29 1.27 1.23 1.23 1.19 1.10 1.05 1.00 0.95 0.94 0.88 0.84 0.72 0.66 0.69 0.68 0.71 0.83 0.87 0.89 0.89 0.88 0.86
0.19 0.24 0.25 0.23 0.23 0.23 0.23 0.21 0.21 0.23 0.20 0.19 0.20 0.27 0.29 0.30 0.29 0.27 0.25 0.24 0.19 0.18 0.22 0.24 0.13 0.14 0.18 0.18 0.24 0.31 0.34 0.42 0.54 0.57 0.64 0.69 0.74 0.76 0.74 0.76 0.77 0.79 0.81 0.85 0.87 0.90 0.88 0.89 0.93 0.97 0.98 1.02 1.05 1.13 1.22 1.23 1.25 1.28 1.30 1.33 1.33 1.28 1.27 1.28 1.28 1.25 1.24 1.18 1.11 1.03 0.94 0.88 0.82 0.74 0.77 0.79 0.76 0.69 0.74 0.81 0.82 0.86 0.90 0.89 0.85 0.84
0.19 0.22 0.23 0.25 0.24 0.24 0.23 0.22 0.25 0.26 0.22 0.18 0.25 0.26 0.28 0.29 0.27 0.27 0.26 0.24 0.22 0.25 0.25 0.26 0.20 0.17 0.16 0.24 0.32 0.37 0.36 0.43 0.51 0.56 0.59 0.66 0.71 0.72 0.73 0.75 0.76 0.79 0.81 0.82 0.86 0.88 0.90 0.94 0.95 0.95 1.01 1.05 1.09 1.16 1.21 1.22 1.26 1.27 1.30 1.31 1.30 1.30 1.27 1.28 1.28 1.24 1.23 1.14 1.11 1.04 0.95 0.87 0.79 0.77 0.76 0.80 0.75 0.77 0.78 0.79 0.83 0.90 0.93 0.90 0.89 0.81
0.20 0.21 0.23 0.23 0.24 0.24 0.23 0.25 0.28 0.29 0.25 0.24 0.27 0.26 0.25 0.28 0.27 0.26 0.24 0.22 0.22 0.22 0.21 0.23 0.26 0.18 0.20 0.30 0.38 0.36 0.34 0.41 0.45 0.51 0.57 0.63 0.67 0.68 0.70 0.73 0.75 0.79 0.82 0.84 0.83 0.85 0.89 0.96 1.01 1.03 1.03 1.09 1.11 1.14 1.15 1.19 1.24 1.29 1.31 1.30 1.33 1.31 1.26 1.26 1.23 1.23 1.20 1.15 1.04 0.99 0.94 0.87 0.85 0.78 0.75 0.77 0.76 0.78 0.81 0.80 0.87 0.91 0.91 0.90 0.89 0.87
0.21 0.21 0.23 0.25 0.23 0.22 0.25 0.28 0.30 0.30 0.25 0.27 0.27 0.26 0.24 0.24 0.26 0.25 0.23 0.22 0.21 0.20 0.19 0.23 0.26 0.19 0.22 0.28 0.34 0.38 0.36 0.38 0.44 0.52 0.56 0.59 0.62 0.67 0.70 0.72 0.76 0.82 0.85 0.89 0.91 0.96 0.99 1.01 1.04 1.08 1.07 1.06 1.08 1.13 1.18 1.22 1.26 1.28 1.29 1.28 1.29 1.26 1.25 1.22 1.21 1.21 1.15 1.11 1.04 0.98 0.96 0.88 0.81 0.80 0.79 0.77 0.75 0.78 0.82 0.82 0.86 0.87 0.86 0.86 0.85 0.86
0.23 0.26 0.28 0.27 0.25 0.26 0.28 0.31 0.32 0.32 0.30 0.31 0.28 0.24 0.22 0.22 0.23 0.25 0.24 0.23 0.23 0.18 0.20 0.25 0.30 0.26 0.21 0.28 0.34 0.33 0.34 0.40 0.49 0.55 0.62 0.65 0.67 0.71 0.72 0.71 0.76 0.80 0.86 0.93 0.95 1.00 1.01 1.04 1.09 1.07 1.00 1.03 1.08 1.13 1.17 1.20 1.23 1.25 1.26 1.26 1.24 1.25 1.23 1.18 1.20 1.18 1.10 1.08 1.04 1.00 0.96 0.88 0.77 0.79 0.78 0.76 0.77 0.79 0.81 0.79 0.81 0.81 0.80 0.81 0.80 0.80
0.23 0.25 0.25 0.27 0.30 0.30 0.30 0.28 0.31 0.31 0.30 0.26 0.22 0.19 0.19 0.19 0.23 0.23 0.23 0.24 0.18 0.17 0.21 0.26 0.28 0.30 0.21 0.27 0.36 0.45 0.51 0.53 0.50 0.49 0.52 0.56 0.62 0.67 0.72 0.76 0.81 0.85 0.88 0.91 0.92 0.94 0.97 0.99 1.01 0.99 0.96 1.00 1.05 1.10 1.13 1.16 1.20 1.20 1.22 1.23 1.22 1.25 1.22 1.20 1.23 1.19 1.14 1.10 1.08 1.04 0.96 0.86 0.77 0.77 0.76 0.74 0.77 0.80 0.80 0.81 0.80 0.80 0.77 0.75 0.74 0.72
0.21 0.22 0.26 0.27 0.31 0.29 0.28 0.25 0.26 0.27 0.25 0.22 0.21 0.19 0.15 0.17 0.19 0.17 0.20 0.17 0.15 0.15 0.22 0.26 0.28 0.25 0.24 0.33 0.45 0.46 0.48 0.58 0.56 0.53 0.54 0.58 0.64 0.68 0.74 0.79 0.82 0.86 0.89 0.89 0.88 0.90 0.92 0.92 0.89 0.88 0.92 0.97 1.00 1.04 1.08 1.11 1.13 1.15 1.17 1.20 1.20 1.20 1.20 1.20 1.22 1.18 1.16 1.14 1.08 1.04 0.92 0.81 0.81 0.80 0.80 0.79 0.80 0.82 0.80 0.82 0.79 0.76 0.73 0.71 0.67 0.68
0.20 0.24 0.26 0.26 0.28 0.30 0.28 0.23 0.22 0.20 0.22 0.21 0.19 0.18 0.14 0.13 0.15 0.15 0.18 0.19 0.18 0.18 0.25 0.23 0.28 0.22 0.34 0.41 0.49 0.48 0.52 0.56 0.58 0.62 0.67 0.69 0.70 0.74 0.77 0.80 0.82 0.86 0.88 0.86 0.86 0.85 0.85 0.87 0.88 0.90 0.91 0.95 0.98 1.02 1.04 1.06 1.07 1.10 1.12 1.16 1.18 1.17 1.18 1.18 1.17 1.16 1.15 1.11 1.07 1.00 0.87 0.86 0.85 0.82 0.81 0.82 0.81 0.82 0.82 0.82 0.80 0.78 0.75 0.71 0.67 0.68
0.16 0.17 0.21 0.24 0.22 0.28 0.26 0.24 0.24 0.22 0.22 0.22 0.23 0.20 0.17 0.15 0.14 0.13 0.16 0.15 0.14 0.17 0.20 0.24 0.20 0.20 0.23 0.35 0.52 0.54 0.59 0.67 0.70 0.68 0.66 0.73 0.79 0.81 0.83 0.85 0.85 0.85 0.84 0.86 0.89 0.89 0.91 0.92 0.94 0.96 0.97 0.97 1.00 1.02 1.04 1.07 1.09 1.12 1.13 1.15 1.13 1.12 1.12 1.13 1.12 1.13 1.09 1.06 1.04 0.98 0.95 0.96 0.89 0.85 0.82 0.80 0.80 0.81 0.84 0.87 0.86 0.84 0.80 0.74 0.73 0.70
0.19 0.19 0.24 0.26 0.26 0.27 0.24 0.26 0.25 0.23 0.22 0.24 0.26 0.26 0.20 0.17 0.20 0.14 0.20 0.18 0.18 0.18 0.18 0.23 0.22 0.39 0.33 0.57 0.64 0.64 0.64 0.70 0.72 0.70 0.70 0.69 0.76 0.78 0.78 0.81 0.80 0.81 0.84 0.87 0.89 0.94 0.96 0.97 0.98 0.99 0.99 0.99 0.99 1.03 1.07 1.10 1.13 1.12 1.13 1.14 1.11 1.08 1.08 1.09 1.10 1.10 1.06 1.02 1.03 1.00 1.01 0.98 0.92 0.88 0.81 0.78 0.82 0.87 0.90 0.90 0.89 0.84 0.82 0.80 0.74 0.72
0.20 0.18 0.23 0.26 0.28 0.26 0.24 0.26 0.25 0.25 0.18 0.26 0.26 0.21 0.21 0.26 0.23 0.22 0.24 0.26 0.24 0.22 0.20 0.33 0.32 0.37 0.50 0.54 0.62 0.67 0.64 0.67 0.70 0.69 0.72 0.73 0.77 0.81 0.80 0.81 0.82 0.82 0.84 0.87 0.91 0.92 0.95 1.00 1.00 1.00 1.01 1.00 1.02 1.05 1.09 1.11 1.10 1.09 1.10 1.10 1.08 1.08 1.09 1.08 1.10 1.09 1.05 1.02 1.04 1.03 1.04 1.00 0.93 0.84 0.74 0.75 0.82 0.87 0.92 0.92 0.90 0.86 0.81 0.77 0.72 0.69
0.19 0.19 0.25 0.25 0.25 0.27 0.28 0.28 0.28 0.27 0.25 0.28 0.24 0.26 0.30 0.34 0.31 0.23 0.18 0.23 0.23 0.21 0.23 0.28 0.25 0.32 0.32 0.28 0.60 0.61 0.60 0.63 0.68 0.73 0.77 0.81 0.84 0.80 0.78 0.80 0.81 0.82 0.87 0.91 0.94 0.97 0.98 1.01 1.01 1.01 1.02 1.04 1.06 1.09 1.10 1.10 1.12 1.12 1.10 1.09 1.07 1.07 1.05 1.08 1.10 1.07 1.02 1.04 1.06 1.06 1.05 0.99 0.90 0.80 0.78 0.79 0.82 0.88 0.90 0.92 0.92 0.87 0.81 0.78 0.76 0.74
0.25 0.19 0.22 0.25 0.26 0.31 0.30 0.28 0.27 0.29 0.28 0.24 0.27 0.36 0.25 0.22 0.19 0.26 0.23 0.19 0.20 0.21 0.22 0.27 0.32 0.34 0.37 0.39 0.50 0.55 0.59 0.63 0.68 0.73 0.73 0.73 0.77 0.76 0.78 0.81 0.84 0.87 0.88 0.88 0.91 0.95 0.97 0.98 0.99 1.01 1.05 1.12 1.14 1.16 1.18 1.19 1.18 1.14 1.10 1.11 1.11 1.09 1.11 1.12 1.14 1.11 1.08 1.10 1.10 1.09 1.06 0.99 0.94 0.89 0.84 0.83 0.86 0.90 0.90 0.90 0.88 0.84 0.84 0.83 0.82 0.79
0.28 0.19 0.21 0.27 0.27 0.32 0.32 0.27 0.21 0.24 0.27 0.28 0.32 0.31 0.34 0.29 0.25 0.22 0.21 0.24 0.24 0.22 0.22 0.24 0.30 0.30 0.44 0.47 0.52 0.55 0.62 0.68 0.69 0.70 0.70 0.74 0.76 0.78 0.80 0.81 0.83 0.85 0.87 0.88 0.90 0.94 0.98 1.00 1.00 1.01 1.06 1.11 1.14 1.17 1.18 1.19 1.18 1.15 1.13 1.11 1.12 1.15 1.17 1.17 1.15 1.15 1.13 1.15 1.16 1.12 1.09 1.04 1.00 0.96 0.87 0.87 0.90 0.92 0.92 0.90 0.88 0.87 0.86 0.84 0.84 0.79
0.28 0.28 0.18 0.25 0.33 0.29 0.26 0.30 0.26 0.25 0.23 0.23 0.25 0.26 0.28 0.27 0.33 0.29 0.30 0.24 0.22 0.22 0.22 0.22 0.22 0.32 0.47 0.60 0.58 0.57 0.63 0.66 0.70 0.74 0.74 0.78 0.79 0.82 0.84 0.86 0.89 0.95 0.96 0.93 0.92 0.94 0.99 1.03 1.05 1.08 1.13 1.16 1.19 1.26 1.22 1.20 1.18 1.20 1.21 1.16 1.13 1.11 1.12 1.13 1.16 1.19 1.19 1.21 1.20 1.16 1.09 1.07 1.05 0.98 0.94 0.92 0.95 0.96 0.94 0.91 0.91 0.90 0.89 0.87 0.85 0.81
0.30 0.29 0.20 0.24 0.25 0.26 0.31 0.36 0.35 0.33 0.30 0.28 0.25 0.23 0.27 0.24 0.23 0.21 0.21 0.29 0.26 0.22 0.20 0.19 0.19 0.37 0.55 0.69 0.65 0.62 0.65 0.68 0.73 0.79 0.77 0.81 0.83 0.83 0.85 0.85 0.90 0.95 0.99 0.98 1.01 1.03 1.04 1.08 1.11 1.13 1.15 1.17 1.11 1.19 1.22 1.19 1.19 1.19 1.19 1.19 1.17 1.15 1.16 1.19 1.17 1.16 1.17 1.20 1.19 1.20 1.16 1.11 1.06 1.01 0.97 0.95 0.98 0.95 0.94 0.91 0.92 0.93 0.92 0.86 0.85 0.86
0.40 0.36 0.27 0.22 0.26 0.32 0.35 0.39 0.41 0.41 0.37 0.35 0.32 0.28 0.32 0.31 0.30 0.25 0.20 0.23 0.28 0.27 0.28 0.27 0.24 0.34 0.62 0.71 0.70 0.68 0.71 0.72 0.72 0.76 0.81 0.80 0.82 0.83 0.87 0.90 0.90 0.86 0.89 0.96 1.00 1.06 1.09 1.11 1.05 1.10 1.08 1.12 1.12 1.13 1.16 1.19 1.16 1.17 1.20 1.22 1.22 1.18 1.18 1.19 1.17 1.16 1.16 1.16 1.16 1.17 1.21 1.15 1.07 1.05 1.03 0.97 0.93 0.92 0.95 0.91 0.92 0.94 0.90 0.87 0.84 0.89
0.51 0.34 0.27 0.26 0.30 0.35 0.41 0.44 0.41 0.42 0.40 0.35 0.35 0.36 0.33 0.28 0.29 0.28 0.27 0.30 0.27 0.29 0.24 0.25 0.23 0.36 0.63 0.73 0.73 0.73 0.74 0.77 0.78 0.76 0.82 0.82 0.81 0.83 0.84 0.85 0.85 0.86 0.91 0.93 0.92 1.01 1.07 1.09 1.08 1.10 1.13 1.09 1.08 1.09 1.09 1.09 1.13 1.16 1.16 1.23 1.22 1.24 1.20 1.19 1.21 1.22 1.22 1.24 1.20 1.20 1.21 1.16 1.12 1.09 1.07 0.99 0.95 0.93 0.94 0.93 0.95 0.95 0.91 0.89 0.84 0.88
0.35 0.37 0.32 0.26 0.24 0.28 0.32 0.37 0.37 0.40 0.39 0.37 0.35 0.36 0.37 0.37 0.35 0.34 0.32 0.33 0.26 0.28 0.28 0.24 0.21 0.32 0.59 0.72 0.73 0.72 0.72 0.73 0.76 0.81 0.86 0.81 0.82 0.82 0.81 0.81 0.83 0.86 0.95 0.97 0.97 0.98 1.03 1.05 1.06 1.02 1.02 1.02 1.04 1.05 1.06 1.04 1.03 1.06 1.12 1.18 1.18 1.20 1.23 1.22 1.26 1.25 1.23 1.22 1.22 1.23 1.20 1.17 1.15 1.14 1.10 1.03 0.99 1.00 1.00 0.99 0.98 0.97 0.93 0.90 0.84 0.86
0.41 0.39 0.34 0.25 0.21 0.18 0.19 0.21 0.25 0.28 0.33 0.39 0.40 0.39 0.37 0.34 0.32 0.30 0.24 0.26 0.22 0.28 0.29 0.26 0.29 0.43 0.60 0.67 0.68 0.68 0.68 0.71 0.78 0.83 0.86 0.83 0.81 0.82 0.80 0.80 0.82 0.84 0.89 0.96 0.99 0.99 0.97 1.01 1.04 1.03 1.01 1.01 1.00 0.98 0.99 1.04 1.05 1.04 1.08 1.13 1.17 1.16 1.18 1.20 1.22 1.23 1.19 1.20 1.22 1.21 1.19 1.15 1.16 1.10 1.05 0.98 0.96 0.99 1.00 0.97 0.97 0.97 0.97 0.93 0.84 0.84
0.45 0.45 0.40 0.36 0.30 0.27 0.29 0.34 0.39 0.40 0.37 0.32 0.37 0.38 0.38 0.39 0.37 0.34 0.32 0.27 0.23 0.28 0.27 0.32 0.35 0.39 0.49 0.55 0.59 0.63 0.67 0.66 0.69 0.77 0.80 0.79 0.82 0.84 0.83 0.83 0.83 0.86 0.91 0.93 0.94 0.95 0.98 0.97 0.96 0.97 0.97 0.98 0.99 0.96 0.98 1.01 0.99 1.00 1.04 1.08 1.12 1.14 1.14 1.15 1.17 1.19 1.18 1.17 1.18 1.18 1.16 1.13 1.13 1.07 1.03 0.98 0.88 0.89 0.91 0.85 0.94 1.01 0.98 0.94 0.87 0.81
0.45 0.40 0.43 0.40 0.38 0.39 0.41 0.40 0.43 0.42 0.36 0.37 0.37 0.37 0.40 0.38 0.37 0.34 0.30 0.29 0.37 0.29 0.25 0.39 0.43 0.36 0.43 0.52 0.57 0.60 0.66 0.69 0.72 0.74 0.78 0.78 0.79 0.85 0.85 0.85 0.84 0.85 0.87 0.89 0.89 0.89 0.91 0.94 0.94 0.94 0.95 0.96 0.95 0.92 0.91 0.93 0.94 0.93 0.91 0.92 1.02 1.07 1.07 1.09 1.07 1.08 1.10 1.12 1.14 1.13 1.12 1.10 1.08 1.08 1.01 0.95 0.88 0.85 0.84 0.87 0.94 0.94 0.91 0.87 0.80 0.79
0.44 0.38 0.44 0.42 0.41 0.44 0.46 0.45 0.44 0.42 0.41 0.41 0.40 0.41 0.39 0.41 0.37 0.34 0.35 0.39 0.39 0.30 0.28 0.42 0.45 0.40 0.46 0.53 0.59 0.63 0.67 0.70 0.71 0.71 0.75 0.77 0.78 0.78 0.78 0.76 0.76 0.76 0.78 0.79 0.79 0.82 0.85 0.86 0.86 0.85 0.86 0.88 0.92 0.94 0.94 0.94 0.97 0.96 0.94 0.94 0.96 0.98 1.03 1.05 1.04 1.01 1.02 1.03 1.05 1.07 1.06 1.05 1.05 1.05 1.01 0.98 0.96 0.96 0.94 0.94 0.94 0.89 0.85 0.82 0.78 0.79
0.46 0.42 0.45 0.45 0.42 0.44 0.46 0.47 0.48 0.44 0.43 0.42 0.42 0.42 0.43 0.42 0.42 0.40 0.40 0.42 0.41 0.38 0.42 0.45 0.47 0.45 0.51 0.54 0.58 0.62 0.68 0.69 0.69 0.73 0.74 0.73 0.72 0.73 0.73 0.73 0.73 0.73 0.73 0.73 0.74 0.77 0.79 0.80 0.81 0.83 0.84 0.85 0.87 0.89 0.92 0.96 0.95 0.96 0.97 0.96 0.97 0.95 1.00 1.00 0.99 0.99 0.99 0.98 0.99 1.02 1.05 1.04 1.01 0.99 0.99 0.98 0.99 1.02 1.02 0.98 0.93 0.87 0.83 0.81 0.82 0.80
0.45 0.42 0.48 0.46 0.42 0.43 0.45 0.47 0.49 0.47 0.44 0.39 0.43 0.44 0.45 0.45 0.44 0.44 0.43 0.44 0.44 0.44 0.46 0.46 0.45 0.44 0.56 0.63 0.64 0.67 0.69 0.72 0.72 0.70 0.69 0.69 0.70 0.70 0.69 0.70 0.72 0.71 0.72 0.72 0.73 0.76 0.76 0.76 0.77 0.79 0.79 0.81 0.84 0.87 0.92 0.94 1.01 1.02 1.04 1.05 1.03 1.01 1.02 1.03 1.00 1.02 1.01 0.99 1.00 1.00 1.02 1.01 1.00 1.02 1.00 1.01 1.01 1.01 1.02 1.00 0.98 0.96 0.93 0.90 0.91 0.88
0.48 0.43 0.48 0.45 0.38 0.38 0.44 0.45 0.47 0.47 0.44 0.42 0.41 0.41 0.40 0.40 0.36 0.42 0.41 0.46 0.42 0.41 0.45 0.45 0.42 0.42 0.55 0.63 0.65 0.66 0.66 0.66 0.66 0.68 0.68 0.68 0.69 0.69 0.68 0.68 0.69 0.71 0.71 0.72 0.73 0.75 0.75 0.75 0.76 0.77 0.78 0.79 0.82 0.88 0.92 0.94 1.01 1.04 1.04 1.04 1.04 1.05 1.06 1.04 1.00 1.01 1.01 1.01 1.01 1.00 1.00 0.99 0.99 0.99 1.00 1.00 0.97 0.99 1.04 1.04 1.02 1.01 1.00 0.98 0.95 0.95
0.45 0.42 0.40 0.40 0.34 0.36 0.43 0.46 0.45 0.44 0.40 0.35 0.37 0.40 0.42 0.41 0.43 0.47 0.48 0.52 0.51 0.52 0.45 0.41 0.42 0.53 0.57 0.62 0.60 0.61 0.64 0.64 0.65 0.66 0.67 0.68 0.69 0.69 0.68 0.67 0.68 0.70 0.71 0.72 0.73 0.74 0.76 0.76 0.76 0.76 0.76 0.78 0.82 0.88 0.92 0.93 0.93 0.97 1.01 1.02 1.06 1.08 1.03 1.00 1.02 1.03 1.03 1.03 1.01 1.00 1.02 1.03 1.02 1.03 1.05 1.04 1.04 1.04 1.07 1.07 1.06 1.04 1.03 1.01 1.02 1.01
0.43 0.39 0.35 0.41 0.32 0.36 0.40 0.42 0.43 0.36 0.27 0.30 0.49 0.50 0.47 0.41 0.40 0.37 0.39 0.44 0.49 0.52 0.49 0.57 0.58 0.62 0.62 0.62 0.60 0.64 0.67 0.64 0.66 0.67 0.74 0.71 0.69 0.70 0.70 0.71 0.70 0.71 0.72 0.73 0.74 0.75 0.76 0.77 0.77 0.77 0.76 0.76 0.80 0.85 0.90 0.90 0.90 0.93 0.97 0.99 1.04 1.05 1.04 1.04 1.02 1.02 1.02 1.03 1.01 1.03 1.04 1.04 1.05 1.05 1.05 1.05 1.04 1.05 1.04 1.05 1.04 1.05 1.05 1.04 1.06 1.04
0.36 0.36 0.34 0.38 0.30 0.30 0.37 0.39 0.32 0.25 0.29 0.46 0.52 0.52 0.52 0.50 0.47 0.42 0.46 0.48 0.51 0.52 0.53 0.54 0.58 0.60 0.63 0.64 0.65 0.65 0.67 0.70 0.71 0.70 0.72 0.72 0.75 0.72 0.72 0.73 0.73 0.73 0.72 0.72 0.73 0.75 0.77 0.78 0.78 0.77 0.76 0.76 0.78 0.81 0.85 0.88 0.90 0.89 0.89 0.89 0.89 0.88 0.86 0.87 0.88 0.92 0.96 0.98 1.00 1.00 1.02 1.01 1.03 1.03 1.03 1.03 1.02 1.02 1.02 1.01 1.02 1.03 1.04 1.05 1.03 1.01
0.35 0.34 0.35 0.32 0.32 0.33 0.30 0.30 0.20 0.26 0.43 0.49 0.50 0.51 0.54 0.52 0.50 0.47 0.44 0.49 0.52 0.53 0.54 0.54 0.56 0.59 0.62 0.66 0.67 0.69 0.69 0.70 0.71 0.72 0.73 0.73 0.75 0.74 0.73 0.72 0.76 0.77 0.75 0.76 0.76 0.76 0.77 0.78 0.79 0.80 0.79 0.80 0.78 0.79 0.82 0.83 0.86 0.84 0.82 0.83 0.82 0.80 0.77 0.76 0.76 0.77 0.81 0.85 0.91 0.98 1.01 1.02 1.02 1.02 1.03 1.03 1.01 1.00 0.99 0.98 0.98 0.98 0.98 0.98 0.98 1.00
0.40 0.37 0.34 0.28 0.33 0.22 0.26 0.25 0.26 0.41 0.41 0.43 0.43 0.45 0.48 0.42 0.43 0.40 0.32 0.41 0.50 0.53 0.53 0.54 0.56 0.57 0.57 0.56 0.59 0.61 0.62 0.62 0.60 0.62 0.69 0.71 0.73 0.74 0.73 0.73 0.76 0.76 0.78 0.79 0.79 0.79 0.82 0.83 0.81 0.82 0.82 0.81 0.83 0.81 0.81 0.82 0.83 0.81 0.81 0.76 0.75 0.75 0.75 0.75 0.74 0.74 0.75 0.75 0.79 0.86 0.93 1.00 1.02 1.00 1.01 1.00 0.98 0.98 0.97 0.95 0.96 0.97 0.98 0.94 0.93 0.92
0.43 0.34 0.37 0.29 0.28 0.32 0.25 0.23 0.26 0.27 0.23 0.33 0.43 0.50 0.54 0.53 0.50 0.50 0.42 0.37 0.47 0.51 0.53 0.51 0.49 0.50 0.51 0.51 0.52 0.54 0.55 0.51 0.49 0.52 0.61 0.66 0.69 0.71 0.73 0.74 0.75 0.75 0.75 0.75 0.79 0.81 0.84 0.84 0.84 0.85 0.83 0.81 0.81 0.84 0.85 0.82 0.80 0.78 0.77 0.76 0.74 0.74 0.73 0.72 0.71 0.71 0.72 0.72 0.73 0.74 0.76 0.78 0.81 0.83 0.87 0.91 0.91 0.88 0.87 0.89 0.90 0.92 0.94 0.89 0.88 0.89
0.41 0.41 0.38 0.32 0.32 0.31 0.28 0.22 0.22 0.20 0.26 0.39 0.41 0.46 0.51 0.54 0.53 0.52 0.39 0.32 0.45 0.48 0.50 0.49 0.47 0.48 0.48 0.48 0.48 0.50 0.45 0.39 0.41 0.48 0.58 0.62 0.64 0.67 0.68 0.69 0.70 0.70 0.69 0.69 0.71 0.73 0.77 0.79 0.81 0.83 0.83 0.81 0.79 0.81 0.85 0.85 0.82 0.78 0.75 0.74 0.73 0.72 0.72 0.72 0.72 0.72 0.72 0.72 0.73 0.73 0.74 0.73 0.73 0.73 0.73 0.72 0.73 0.77 0.81 0.85 0.86 0.90 0.91 0.89 0.88 0.86
0.35 0.34 0.33 0.29 0.28 0.30 0.29 0.25 0.23 0.27 0.27 0.37 0.43 0.46 0.51 0.55 0.56 0.47 0.26 0.27 0.44 0.48 0.48 0.47 0.45 0.46 0.46 0.48 0.49 0.47 0.43 0.38 0.41 0.46 0.54 0.57 0.60 0.63 0.63 0.64 0.66 0.67 0.68 0.70 0.68 0.68 0.70 0.74 0.76 0.75 0.75 0.74 0.76 0.80 0.80 0.81 0.80 0.79 0.77 0.75 0.74 0.72 0.71 0.71 0.73 0.73 0.72 0.72 0.72 0.72 0.72 0.73 0.72 0.72 0.71 0.71 0.71 0.72 0.72 0.73 0.76 0.82 0.85 0.86 0.85 0.83
0.30 0.31 0.31 0.27 0.28 0.29 0.29 0.29 0.31 0.31 0.39 0.44 0.45 0.49 0.52 0.55 0.50 0.32 0.23 0.35 0.49 0.49 0.49 0.49 0.47 0.48 0.49 0.48 0.48 0.44 0.48 0.49 0.50 0.53 0.57 0.57 0.55 0.53 0.54 0.55 0.55 0.56 0.57 0.58 0.60 0.64 0.64 0.66 0.66 0.68 0.69 0.70 0.70 0.71 0.72 0.72 0.72 0.73 0.73 0.74 0.74 0.73 0.74 0.74 0.73 0.73 0.73 0.73 0.73 0.72 0.71 0.69 0.69 0.69 0.70 0.70 0.71 0.73 0.71 0.71 0.72 0.74 0.81 0.87 0.88 0.85
0.30 0.31 0.32 0.33 0.28 0.28 0.29 0.27 0.29 0.34 0.42 0.47 0.48 0.49 0.53 0.43 0.29 0.27 0.43 0.54 0.52 0.49 0.50 0.50 0.49 0.50 0.50 0.48 0.48 0.47 0.48 0.51 0.53 0.54 0.53 0.53 0.53 0.53 0.52 0.51 0.51 0.52 0.54 0.55 0.55 0.56 0.57 0.56 0.58 0.60 0.61 0.64 0.65 0.65 0.65 0.65 0.65 0.66 0.67 0.68 0.69 0.71 0.74 0.75 0.75 0.74 0.73 0.73 0.72 0.71 0.71 0.72 0.73 0.73 0.73 0.74 0.73 0.73 0.73 0.73 0.74 0.74 0.74 0.74 0.76 0.83
0.31 0.28 0.28 0.29 0.34 0.33 0.32 0.28 0.27 0.23 0.38 0.48 0.47 0.45 0.50 0.36 0.37 0.47 0.49 0.51 0.53 0.50 0.50 0.50 0.50 0.50 0.50 0.47 0.48 0.48 0.48 0.48 0.49 0.49 0.51 0.52 0.52 0.52 0.52 0.51 0.49 0.48 0.47 0.47 0.48 0.50 0.51 0.51 0.52 0.53 0.54 0.59 0.60 0.60 0.59 0.60 0.59 0.60 0.61 0.60 0.63 0.65 0.66 0.68 0.68 0.68 0.68 0.69 0.70 0.70 0.70 0.70 0.70 0.72 0.74 0.74 0.74 0.73 0.73 0.73 0.74 0.74 0.74 0.73 0.71 0.72
0.38 0.28 0.29 0.32 0.37 0.27 0.27 0.24 0.25 0.36 0.44 0.49 0.46 0.37 0.47 0.48 0.53 0.52 0.50 0.48 0.51 0.52 0.51 0.51 0.50 0.50 0.50 0.48 0.47 0.47 0.48 0.48 0.48 0.48 0.49 0.49 0.49 0.49 0.48 0.47 0.47 0.46 0.46 0.47 0.47 0.48 0.49 0.49 0.49 0.49 0.49 0.50 0.51 0.52 0.53 0.52 0.52 0.54 0.54 0.54 0.59 0.60 0.60 0.60 0.61 0.62 0.61 0.62 0.63 0.65 0.66 0.68 0.69 0.70 0.70 0.71 0.72 0.73 0.73 0.73 0.73 0.72 0.71 0.71 0.70 0.69
0.37 0.32 0.36 0.30 0.39 0.34 0.30 0.33 0.40 0.44 0.46 0.49 0.49 0.49 0.50 0.52 0.53 0.52 0.51 0.50 0.49 0.50 0.53 0.51 0.49 0.50 0.51 0.50 0.49 0.48 0.47 0.48 0.48 0.49 0.48 0.48 0.47 0.46 0.44 0.45 0.45 0.45 0.46 0.46 0.46 0.48 0.49 0.48 0.47 0.47 0.48 0.49 0.50 0.50 0.50 0.50 0.49 0.49 0.48 0.51 0.53 0.53 0.54 0.55 0.55 0.54 0.55 0.56 0.58 0.59 0.61 0.62 0.63 0.64 0.64 0.65 0.65 0.65 0.65 0.66 0.67 0.66 0.65 0.69 0.70 0.70
0.41 0.39 0.41 0.37 0.36 0.43 0.45 0.45 0.46 0.45 0.45 0.47 0.49 0.52 0.50 0.51 0.54 0.53 0.51 0.49 0.50 0.51 0.52 0.50 0.51 0.50 0.51 0.52 0.50 0.49 0.49 0.48 0.48 0.47 0.47 0.46 0.46 0.45 0.46 0.46 0.46 0.47 0.46 0.45 0.45 0.45 0.46 0.47 0.47 0.47 0.47 0.48 0.50 0.49 0.49 0.48 0.47 0.44 0.46 0.49 0.49 0.49 0.49 0.48 0.47 0.47 0.47 0.48 0.49 0.50 0.52 0.52 0.53 0.53 0.54 0.57 0.58 0.59 0.60 0.61 0.62 0.62 0.62 0.62 0.62 0.63
0.36 0.37 0.33 0.30 0.37 0.33 0.28 0.41 0.42 0.42 0.44 0.45 0.46 0.50 0.52 0.53 0.53 0.54 0.54 0.54 0.54 0.54 0.54 0.55 0.54 0.54 0.54 0.53 0.50 0.48 0.47 0.47 0.46 0.46 0.46 0.45 0.45 0.45 0.45 0.45 0.44 0.43 0.42 0.41 0.42 0.43 0.43 0.44 0.44 0.44 0.44 0.44 0.46 0.47 0.47 0.47 0.47 0.46 0.47 0.46 0.46 0.46 0.45 0.44 0.43 0.43 0.43 0.43 0.44 0.44 0.44 0.44 0.45 0.45 0.46 0.46 0.47 0.49 0.51 0.54 0.56 0.57 0.58 0.60 0.61 0.61
0.27 0.36 0.29 0.31 0.31 0.28 0.31 0.37 0.41 0.43 0.45 0.45 0.45 0.44 0.45 0.48 0.51 0.54 0.55 0.57 0.58 0.58 0.57 0.57 0.57 0.55 0.55 0.51 0.50 0.47 0.44 0.45 0.44 0.44 0.45 0.45 0.45 0.44 0.43 0.42 0.41 0.40 0.40 0.42 0.43 0.43 0.42 0.40 0.39 0.37 0.37 0.36 0.38 0.39 0.39 0.39 0.38 0.39 0.40 0.40 0.40 0.40 0.40 0.39 0.39 0.38 0.38 0.39 0.40 0.40 0.41 0.40 0.41 0.41 0.41 0.42 0.44 0.44 0.45 0.46 0.48 0.49 0.50 0.51 0.55 0.56
0.31 0.33 0.23 0.30 0.27 0.32 0.36 0.37 0.38 0.38 0.39 0.41 0.43 0.45 0.45 0.46 0.46 0.47 0.49 0.49 0.50 0.49 0.50 0.51 0.51 0.51 0.50 0.48 0.47 0.44 0.42 0.43 0.44 0.44 0.43 0.43 0.42 0.42 0.40 0.40 0.39 0.38 0.39 0.39 0.39 0.38 0.37 0.37 0.35 0.35 0.34 0.34 0.36 0.36 0.35 0.35 0.35 0.35 0.35 0.35 0.35 0.34 0.33 0.32 0.32 0.32 0.32 0.33 0.33 0.33 0.34 0.35 0.35 0.36 0.37 0.38 0.40 0.42 0.44 0.43 0.43 0.44 0.46 0.50 0.52 0.52
0.28 0.24 0.30 0.27 0.23 0.24 0.25 0.28 0.32 0.26 0.27 0.33 0.36 0.40 0.41 0.42 0.41 0.41 0.41 0.42 0.42 0.42 0.43 0.43 0.44 0.46 0.46 0.46 0.45 0.44 0.41 0.39 0.40 0.41 0.40 0.40 0.40 0.39 0.38 0.37 0.37 0.37 0.37 0.38 0.38 0.37 0.37 0.36 0.35 0.34 0.33 0.33 0.34 0.34 0.33 0.33 0.34 0.34 0.34 0.34 0.33 0.32 0.30 0.30 0.29 0.29 0.29 0.29 0.29 0.29 0.29 0.29 0.29 0.29 0.29 0.30 0.31 0.32 0.34 0.40 0.43 0.44 0.43 0.44 0.48 0.50
0.24 0.25 0.25 0.21 0.21 0.21 0.29 0.32 0.33 0.31 0.30 0.32 0.34 0.37 0.38 0.39 0.38 0.37 0.36 0.37 0.38 0.39 0.40 0.38 0.37 0.38 0.38 0.39 0.41 0.40 0.40 0.39 0.37 0.37 0.35 0.35 0.34 0.34 0.33 0.33 0.33 0.33 0.34 0.35 0.34 0.34 0.34 0.33 0.33 0.32 0.31 0.31 0.32 0.31 0.31 0.31 0.31 0.31 0.32 0.32 0.31 0.30 0.29 0.28 0.26 0.26 0.26 0.27 0.26 0.27 0.27 0.27 0.27 0.28 0.29 0.29 0.29 0.29 0.29 0.29 0.31 0.35 0.38 0.39 0.41 0.43
Wind_Speed
14 15 17 17 17 16 17 17 17 16 16 16 15 16 16 16 16 15 15 14 13 15 18 19 19 19 19 17 17 17 17 19 18 15 16 17 17 18 18 17 15 13 13 12 12 12 12 12 12 12 12 12 12 12 11 11 11 11 11 10 11 12 12 11 11 11 11 11 11 11 11 11 10 10 10 10 9 10 10 9 9 8 7 7 7 7
12 15 17 17 17 17 17 17 16 16 17 17 16 16 16 16 16 15 14 14 13 14 17 18 20 21 19 17 17 17 16 17 18 17 16 17 18 18 18 17 15 14 13 13 13 13 12 12 11 11 12 12 13 13 12 11 11 11 11 11 11 12 12 12 12 12 12 12 11 11 11 11 10 10 11 10 10 10 9 9 8 7 7 6 6 7
13 15 17 17 16 16 16 16 15 15 16 17 16 15 16 16 15 15 14 14 13 13 16 16 19 21 19 17 15 15 16 17 19 20 18 18 20 20 18 16 16 15 14 14 14 13 12 12 11 11 12 13 13 13 12 11 11 11 11 12 12 12 12 12 12 12 12 11 11 11 11 11 11 10 10 10 10 9 9 8 7 7 7 6 6 6
13 14 15 15 14 14 15 16 15 15 15 16 16 15 16 15 14 14 13 12 12 14 15 15 17 18 17 16 13 12 13 14 17 19 16 17 20 20 19 17 17 16 16 15 14 14 13 13 12 11 12 12 12 12 11 11 11 11 12 12 12 12 12 12 12 13 12 11 11 11 12 12 11 10 10 10 9 9 8 8 7 7 7 6 6 7
14 12 10 11 13 13 14 15 15 15 15 15 16 16 15 14 14 14 12 11 11 12 12 13 15 16 17 16 13 12 12 12 15 15 14 15 18 19 19 19 18 17 16 15 15 14 14 13 13 12 12 12 12 12 12 11 11 12 12 12 12 12 12 12 12 12 12 12 12 12 12 12 12 11 10 10 9 9 8 8 8 8 7 7 7 7
15 12 10 11 13 13 13 15 15 15 15 15 15 15 15 14 14 14 11 9 9 9 9 10 12 15 16 15 13 12 11 12 14 15 15 16 17 19 20 19 18 17 15 14 14 14 14 14 13 12 13 13 13 12 12 11 12 12 12 12 12 12 13 12 12 13 13 13 13 13 13 12 12 12 11 11 10 10 9 9 8 8 7 7 6 6
14 12 11 12 12 13 14 15 15 14 14 15 15 14 14 14 14 13 10 8 8 9 8 8 10 12 12 12 13 12 11 13 15 15 17 18 18 19 19 19 18 17 16 15 14 14 14 13 13 13 13 13 13 13 12 12 12 12 12 12 12 12 13 13 12 13 14 14 14 14 13 13 12 12 12 11 11 10 10 10 9 8 7 6 5 5
12 12 12 12 12 13 13 14 14 14 14 15 13 13 14 14 15 14 12 10 10 10 8 7 9 10 10 10 12 11 10 12 16 17 18 19 19 18 18 18 18 17 16 15 15 15 14 14 13 13 13 13 13 13 12 13 13 13 13 12 12 12 13 13 13 13 14 15 15 14 14 13 12 12 12 12 11 11 11 10 9 8 7 6 5 5
11 12 12 12 12 13 13 15 14 14 14 14 13 13 13 14 16 14 13 12 10 9 9 8 9 9 9 10 10 10 11 14 17 18 19 18 18 18 17 18 17 16 15 14 14 14 14 13 13 13 13 13 12 12 13 13 13 13 13 13 13 13 13 13 14 14 14 16 16 15 14 14 13 12 12 12 12 11 11 10 9 9 8 6 5 5
11 13 13 12 12 13 13 14 13 13 14 14 13 12 11 12 14 14 13 13 10 11 12 11 9 9 9 10 10 11 13 15 17 18 18 17 17 17 17 17 16 15 14 13 13 13 13 12 13 13 13 12 12 12 12 13 13 13 13 13 14 14 14 14 15 14 15 16 16 15 15 15 14 13 13 12 12 12 12 11 10 9 8 6 5 5
14 14 14 13 13 13 13 12 12 13 13 11 11 11 11 11 12 13 13 12 10 12 14 13 11 9 9 10 11 13 14 15 16 17 17 17 16 17 17 17 16 15 14 13 12 12 12 12 13 14 13 12 12 12 12 12 12 13 13 13 14 14 15 15 15 15 15 15 16 16 16 16 15 14 14 13 13 13 12 11 10 9 8 7 6 5
14 14 14 13 13 12 12 12 11 12 12 10 10 10 10 11 11 12 12 11 11 12 14 14 12 10 9 11 12 13 14 15 15 17 19 18 17 17 16 16 15 14 13 12 11 11 12 13 14 14 13 13 13 12 13 12 12 13 13 14 14 15 15 15 14 14 15 15 15 16 16 16 15 15 14 14 13 13 12 11 10 9 8 7 7 6
14 14 13 13 12 11 11 12 11 10 10 10 10 10 10 11 10 11 12 11 11 12 13 13 12 10 11 12 12 11 13 15 14 14 18 18 17 16 16 15 14 13 12 11 10 10 12 13 14 14 14 13 13 13 13 13 13 13 13 14 14 15 15 15 15 14 15 15 15 16 16 15 15 15 14 14 13 13 13 12 11 10 9 8 7 6
13 13 13 12 11 10 10 11 10 10 10 11 12 12 12 12 11 12 12 11 11 12 13 13 12 11 11 11 10 10 13 14 12 13 16 16 16 15 15 15 14 13 12 12 11 11 12 13 13 14 14 14 13 14 14 14 14 13 13 14 14 15 15 15 15 15 15 15 15 15 16 15 15 15 14 14 13 13 13 12 11 10 9 8 7 7
12 12 12 13 12 11 11 12 12 11 11 12 12 12 13 13 12 12 13 11 12 12 11 11 12 12 12 11 10 9 11 12 12 13 14 13 13 14 13 14 14 13 12 12 11 11 12 13 13 14 14 14 14 14 14 14 14 14 14 14 15 15 15 15 15 15 15 15 15 16 16 15 15 14 14 14 14 14 13 12 11 10 9 8 7 7
13 13 13 13 13 13 12 12 11 11 12 13 11 11 14 15 13 11 12 12 11 10 9 10 11 12 13 12 9 8 9 11 12 12 12 12 13 13 13 13 14 13 12 11 11 11 12 13 14 14 14 15 15 14 14 15 15 15 15 15 16 16 16 15 15 15 16 16 16 16 16 16 15 14 14 15 15 14 14 13 12 10 9 8 8 8
12 13 12 11 11 13 14 12 11 12 13 12 11 12 13 14 12 11 11 10 9 9 10 9 10 11 12 11 9 7 8 10 11 11 11 12 13 13 12 13 13 13 12 11 10 11 13 14 14 14 15 15 15 15 14 15 16 16 16 16 16 16 16 16 16 16 17 16 16 17 17 16 16 15 15 15 15 15 14 13 13 11 10 9 8 8
13 14 12 11 11 12 14 13 11 12 13 12 12 12 12 10 11 11 11 9 8 10 11 9 10 11 11 10 10 9 9 10 9 10 10 11 12 12 12 13 13 13 12 11 10 12 13 14 14 15 15 15 15 15 15 15 16 16 17 17 17 17 17 16 16 17 17 17 17 17 17 17 16 15 15 15 15 15 14 13 13 12 11 10 10 9
14 14 13 12 12 11 11 12 12 12 13 14 13 12 10 11 12 12 11 10 10 11 10 9 9 10 9 10 10 11 11 11 10 10 10 10 11 11 12 13 13 13 12 11 11 13 13 14 14 14 14 14 15 15 14 14 14 15 16 17 17 17 17 17 16 17 17 18 18 18 18 17 17 16 15 15 15 15 14 13 13 12 11 10 10 10
14 14 13 12 11 9 9 10 12 13 12 13 13 12 11 11 12 12 12 12 11 11 11 10 10 10 10 11 12 13 13 12 11 11 10 10 11 11 12 13 13 13 12 12 12 13 14 15 15 14 14 14 14 15 14 14 14 14 14 16 16 17 18 17 17 17 17 18 18 18 18 17 17 16 16 15 15 15 14 14 13 12 11 10 10 10
13 14 15 13 10 9 11 11 11 12 13 13 13 14 13 12 12 11 11 12 11 11 11 11 11 11 10 11 13 13 13 12 11 11 11 11 10 10 10 11 11 11 11 12 12 14 15 15 15 15 15 14 14 15 15 15 15 14 14 15 16 17 18 17 17 17 17 18 18 17 17 17 17 16 16 16 15 15 14 13 13 12 11 10 10 10
13 14 15 14 10 9 12 14 12 10 11 13 15 15 14 14 13 12 11 12 11 11 12 12 11 10 10 11 12 11 11 11 10 10 11 9 8 8 9 9 10 10 10 11 12 14 15 15 15 16 15 15 14 14 15 16 16 15 15 15 15 17 17 18 17 17 17 18 17 17 17 17 17 17 16 16 16 15 14 14 13 12 11 11 10 11
13 13 13 14 12 10 11 13 14 12 9 10 12 14 13 13 13 13 13 13 12 11 11 10 9 9 10 10 10 9 10 10 9 9 10 9 7 7 7 8 8 9 9 10 11 12 13 13 13 13 13 13 13 14 15 16 17 17 17 16 16 17 17 18 18 18 18 18 18 18 18 17 17 17 17 16 16 15 15 15 14 13 12 11 11 11
14 12 12 13 13 12 12 12 13 13 12 10 10 12 12 12 13 13 13 14 13 12 12 10 10 10 10 9 9 8 8 9 8 8 9 9 8 8 8 7 7 8 8 9 10 10 10 10 10 10 10 10 11 12 14 15 16 17 17 18 18 18 18 19 19 19 18 18 18 18 17 17 17 17 17 16 16 16 15 15 15 14 13 13 13 13
16 14 13 12 12 13 13 13 13 14 14 13 12 12 11 11 12 12 13 12 12 13 14 12 12 12 11 10 9 8 7 8 7 8 9 9 8 8 7 7 6 6 7 8 9 9 9 9 9 9 9 9 10 12 13 13 14 15 16 17 18 18 18 19 20 20 19 18 18 18 18 17 18 18 17 17 17 16 16 15 15 15 14 14 14 14
17 17 14 13 13 14 14 15 14 15 16 15 14 12 11 11 11 12 14 13 12 13 12 12 13 13 11 10 10 9 8 7 7 8 8 7 7 7 7 6 6 6 6 7 8 9 9 9 8 8 8 9 10 11 12 12 12 13 14 15 16 17 17 17 19 19 19 19 18 18 18 18 18 18 18 19 18 17 16 16 16 16 15 15 15 14
17 18 16 15 15 15 15 15 15 15 16 16 15 13 12 11 10 11 13 13 14 14 11 12 14 13 12 11 10 10 10 9 9 9 8 6 6 6 6 5 5 4 5 6 7 8 8 7 7 6 6 8 9 10 10 11 11 12 12 12 13 14 14 15 16 17 18 18 17 17 16 16 17 17 17 18 18 17 17 17 17 16 16 15 15 15
15 16 17 16 16 15 14 14 14 13 14 16 17 16 15 13 10 10 11 12 13 13 12 13 14 13 12 12 11 11 10 10 9 8 6 6 6 6 5 4 3 3 4 5 5 6 6 6 5 5 4 5 6 8 9 9 10 10 11 11 12 12 13 13 14 14 15 16 15 15 15 14 15 15 15 15 16 16 16 17 17 17 16 16 16 16
13 15 16 17 16 15 13 13 13 12 12 13 15 16 16 16 13 12 12 13 13 13 13 15 14 13 13 12 11 10 10 9 8 7 5 4 4 4 4 3 3 3 3 3 4 5 5 6 5 4 4 4 4 5 7 9 9 10 10 11 11 12 12 12 13 13 13 14 14 14 14 14 14 14 14 14 15 15 15 15 15 15 15 16 16 16
11 13 14 15 15 14 12 12 14 14 12 11 11 12 13 14 15 14 13 12 11 12 13 14 13 12 12 13 12 10 10 10 9 8 7 5 4 4 3 3 3 3 3 3 3 3 4 4 4 3 3 4 3 4 6 8 9 10 10 11 11 11 11 12 12 12 12 13 14 14 14 14 14 14 14 14 14 14 14 14 14 14 15 15 16 16
10 11 13 13 12 12 12 12 13 13 13 11 9 10 11 12 13 13 13 13 12 12 13 13 13 12 13 13 12 11 10 9 9 8 8 7 6 5 4 4 4 4 4 4 3 3 4 4 3 2 2 3 3 4 5 7 8 9 10 10 11 11 11 12 12 12 12 12 13 13 14 14 14 14 15 14 14 14 14 15 15 15 15 15 16 16
9 10 11 11 11 11 11 11 12 13 12 10 9 9 11 12 12 13 14 15 15 15 15 14 15 15 15 14 12 11 9 8 8 9 8 8 7 6 5 5 5 5 5 5 4 4 4 4 3 2 2 3 4 4 5 6 7 8 8 9 10 11 11 11 12 12 12 12 12 13 13 14 14 14 15 15 15 14 14 15 15 15 15 15 15 15
8 8 9 9 10 11 10 10 12 12 10 9 10 11 12 12 12 12 12 13 14 15 16 17 16 16 16 15 13 13 11 10 10 10 9 9 8 7 7 6 6 6 6 6 6 5 5 5 5 4 3 4 4 5 5 6 6 6 7 8 9 10 10 10 11 11 11 11 12 12 13 14 14 15 16 16 15 15 15 15 15 15 16 16 16 16
8 8 9 8 9 10 10 9 9 9 9 10 12 11 11 11 11 10 11 11 11 12 14 14 14 14 15 14 14 13 12 11 11 11 9 9 9 8 7 8 7 8 7 7 7 7 7 6 6 5 5 4 5 6 6 6 6 6 6 7 8 8 9 9 9 10 10 10 11 11 12 13 14 15 16 16 16 16 17 16 16 16 16 17 17 17
10 10 10 9 9 9 9 7 6 7 8 9 11 10 10 10 10 9 9 9 10 11 12 12 12 12 12 12 12 13 12 11 11 10 9 10 10 9 8 8 8 9 9 8 8 8 8 8 7 7 6 5 6 7 7 7 7 6 6 6 7 7 7 8 8 9 9 10 10 11 12 13 13 14 15 16 16 17 18 18 18 18 17 17 18 18
12 12 12 11 10 10 10 8 8 7 8 8 8 8 9 9 9 9 8 9 10 11 12 12 12 12 11 11 12 12 12 11 10 10 10 10 11 11 10 10 9 10 10 10 10 10 10 9 9 8 8 7 7 8 8 8 8 7 7 6 6 6 7 7 7 8 8 9 9 11 12 13 13 14 14 15 16 17 17 18 18 18 18 19 19 19
13 14 13 12 11 11 11 9 8 9 9 8 8 8 8 8 10 11 11 10 11 12 12 13 13 12 12 12 12 13 12 10 10 11 11 11 11 12 12 11 11 10 10 10 10 10 11 11 10 10 10 9 9 9 9 9 9 8 7 7 6 6 6 6 7 7 8 8 9 10 11 12 13 14 14 15 16 16 17 17 17 18 18 19 19 19
12 13 14 13 12 12 11 10 10 10 10 10 11 11 10 10 11 11 11 11 12 13 13 14 14 14 14 13 14 14 12 10 11 13 13 11 11 11 11 11 11 10 10 9 9 9 10 11 11 12 11 10 10 10 11 10 10 9 9 8 8 7 7 7 7 8 8 9 9 10 11 12 12 13 14 15 16 17 17 17 17 18 18 19 19 20
11 12 12 12 12 12 11 11 11 11 11 12 13 13 12 12 12 11 10 11 12 13 14 14 14 15 15 15 15 14 13 12 14 15 14 13 12 12 11 12 12 11 11 11 10 10 10 10 11 11 11 11 11 11 11 11 11 10 10 11 11 10 10 10 10 10 10 10 11 11 11 12 13 13 14 15 16 16 17 17 18 19 20 20 21 21
11 12 12 12 12 13 12 11 11 12 13 13 14 14 13 13 13 12 12 13 13 13 14 14 14 15 16 15 15 14 13 14 15 16 15 14 14 13 13 13 12 12 11 11 11 10 9 10 10 10 10 10 10 11 11 11 10 10 10 11 11 11 11 11 12 12 12 12 12 12 13 13 13 14 14 15 15 16 17 18 19 20 21 22 22 23
12 12 12 12 12 12 12 12 12 12 13 13 13 14 13 12 12 13 14 14 13 13 13 13 13 14 14 13 12 12 13 14 15 15 15 15 14 14 13 13 12 12 12 11 11 11 10 10 10 10 10 10 11 11 12 12 12 11 12 12 12 12 12 13 13 13 14 14 14 14 15 15 15 16 16 17 18 19 19 20 20 21 23 24 25 26
11 11 12 12 12 12 12 11 11 11 12 12 13 14 13 13 13 14 13 12 12 11 11 11 11 11 10 9 9 10 10 11 13 13 14 14 14 14 14 13 12 12 12 12 12 12 12 12 12 12 12 12 13 13 14 14 14 13 14 14 14 15 15 16 16 16 17 17 17 18 18 18 19 19 20 21 22 22 23 23 23 24 24 25 26 27
10 10 10 11 11 11 11 10 10 11 12 12 12 13 13 13 14 13 12 10 10 10 10 9 10 10 10 9 9 9 9 9 10 11 12 13 13 13 13 13 13 13 13 14 14 14 14 14 14 14 14 15 15 15 15 15 15 15 14 15 16 17 17 18 19 20 20 20 21 21 22 22 23 24 24 25 25 25 26 26 26 26 26 26 27 27
9 9 10 10 11 11 10 9 10 11 11 10 10 11 12 12 12 12 11 10 10 10 10 10 10 10 10 10 9 9 9 9 9 10 10 11 12 12 12 12 13 13 13 13 14 15 15 15 15 16 16 17 17 17 17 17 16 16 16 16 17 18 19 19 20 21 22 23 24 24 25 26 26 27 27 27 27 28 29 29 30 30 30 30 29 29
7 8 9 9 9 10 9 9 9 9 8 7 7 8 9 9 9 10 10 10 10 11 11 11 10 10 10 10 10 10 10 11 11 11 11 12 12 12 12 12 13 13 13 13 14 15 15 15 16 16 17 18 18 18 18 19 18 18 18 19 20 20 21 22 22 23 24 25 25 26 27 28 28 29 29 29 30 30 31 31 32 31 31 32 33 32
7 6 7 8 9 8 7 8 8 8 6 5 6 7 8 8 8 8 8 9 10 10 11 11 11 11 12 12 12 12 13 13 13 13 13 13 13 13 13 13 14 14 14 15 15 15 16 16 16 16 16 17 18 18 19 19 20 20 21 22 22 22 23 24 24 24 25 26 26 27 28 29 29 30 31 31 31 32 32 33 33 33 33 33 34 35
7 7 7 8 9 9 8 9 9 8 7 7 7 7 8 8 8 8 8 9 10 10 10 11 12 12 13 13 13 13 14 15 15 15 15 15 14 14 14 14 15 15 16 17 17 17 17 17 17 17 17 17 18 19 20 21 21 22 23 24 24 25 25 25 25 26 26 27 27 28 29 29 30 31 32 32 33 33 34 34 35 35 35 36 36 37
8 8 7 8 9 9 9 10 10 9 9 8 8 9 9 9 9 9 9 10 11 11 11 11 11 12 13 13 14 14 14 15 16 16 16 15 15 15 15 16 16 17 17 17 17 17 18 18 18 18 19 20 20 21 22 22 23 24 24 25 26 26 26 26 27 27 27 28 28 29 29 30 31 32 32 33 34 34 35 36 36 37 37 37 38 39
8 8 8 8 8 9 9 10 10 9 9 9 9 9 10 10 10 11 11 11 12 12 12 12 12 13 13 14 15 15 15 16 17 17 17 17 17 17 18 18 18 17 17 17 18 18 19 19 19 20 20 21 22 23 23 24 24 25 25 26 26 27 27 27 27 28 28 28 29 29 30 31 31 32 33 34 34 35 36 37 37 38 38 39 39 39
6 7 8 8 9 10 11 11 10 10 10 11 10 10 10 10 10 10 11 11 12 13 13 13 13 14 14 15 16 16 16 17 17 18 18 18 19 19 19 19 18 18 19 19 19 20 20 21 21 21 22 23 24 24 24 25 25 26 26 27 27 27 27 28 28 28 29 29 29 30 31 31 32 32 33 34 35 36 37 38 38 39 40 40 41 41
6 8 8 8 9 10 10 10 10 10 10 11 11 11 11 11 11 11 11 12 13 13 14 14 15 15 15 16 16 16 17 18 18 18 19 19 20 20 20 20 20 20 21 21 21 22 22 23 23 23 24 24 25 25 25 26 26 27 27 27 28 28 28 28 28 28 29 29 30 30 31 31 32 32 33 34 35 35 36 38 39 39 40 41 41 42
Wind_Direction
233 237 239 235 234 232 232 232 230 233 232 234 238 238 240 242 244 243 242 243 242 245 244 236 233 233 231 230 231 226 216 218 220 214 212 213 211 208 205 208 214 219 223 225 224 226 232 236 238 238 237 234 231 231 227 223 224 223 219 215 212 211 210 209 208 206 203 202 205 205 203 199 195 191 187 186 183 181 184 188 189 189 188 189 190 190
235 236 238 234 232 231 232 232 231 233 233 234 237 240 243 243 247 247 244 245 240 244 245 234 230 230 228 231 231 222 217 220 218 214 214 211 209 206 203 206 213 217 221 223 223 227 233 237 237 237 237 236 234 231 225 220 219 217 214 212 211 211 210 208 206 205 202 203 205 203 200 196 192 189 188 189 189 188 188 187 184 182 180 179 182 183
244 242 239 233 229 229 232 231 228 230 230 232 235 240 243 243 249 249 243 241 237 243 247 232 225 228 228 230 231 225 224 224 214 210 213 209 205 204 204 208 212 214 220 222 223 227 233 236 236 238 240 237 232 225 220 217 215 213 212 211 211 211 209 206 203 202 202 203 203 201 197 191 187 186 186 187 187 187 185 182 179 176 176 175 177 178
244 244 234 226 224 225 232 231 226 228 229 230 233 239 243 241 245 247 242 241 242 244 242 228 223 229 230 228 229 226 222 219 210 206 211 207 201 202 205 208 211 213 219 221 224 231 236 238 239 241 239 236 229 222 219 219 218 215 212 212 211 208 207 205 203 202 201 200 197 195 191 187 185 184 184 183 181 182 181 181 179 176 175 173 173 174
237 236 222 216 220 222 229 231 226 227 230 231 232 236 240 237 235 237 242 252 255 252 238 223 224 231 230 222 220 222 215 210 205 201 204 203 197 199 204 208 212 216 219 220 224 231 236 240 241 240 238 234 228 223 222 221 219 216 211 209 207 204 204 204 204 203 199 195 192 190 188 187 188 187 186 183 180 180 181 181 181 177 173 173 175 175
233 231 217 215 222 222 227 231 225 222 230 236 234 232 230 228 229 233 244 257 260 258 240 217 216 225 224 213 209 216 213 210 208 201 200 200 199 202 206 212 216 218 220 221 224 230 237 242 240 236 233 229 226 224 221 219 217 215 211 208 206 203 203 203 203 201 198 194 191 189 187 187 189 189 190 187 183 184 185 183 181 177 174 174 177 179
230 227 218 216 222 223 227 232 225 217 227 238 237 230 223 225 231 235 242 246 244 248 240 214 205 212 213 204 200 203 203 208 209 206 205 203 205 210 212 216 219 220 222 224 226 231 238 241 238 233 228 225 223 221 218 217 216 214 210 207 206 204 202 201 201 200 198 195 192 191 190 189 189 190 193 193 191 191 190 187 183 179 177 177 181 185
223 226 223 219 222 225 228 231 224 214 224 237 236 228 227 231 233 234 235 234 235 243 244 223 203 199 202 201 200 198 200 209 210 208 210 209 210 213 215 217 219 220 224 228 231 234 238 238 235 229 223 221 221 218 216 215 214 213 210 207 205 202 201 198 198 198 198 196 193 192 192 191 191 193 195 196 194 194 192 189 187 185 184 186 190 193
218 222 225 223 225 229 230 232 227 218 227 237 232 227 230 230 227 228 229 231 234 235 239 232 208 200 207 209 209 208 207 211 212 212 213 212 212 213 216 217 219 224 229 233 236 237 237 234 229 221 216 218 218 215 214 212 211 211 210 208 205 203 200 196 194 194 195 196 195 194 193 194 195 194 192 191 191 190 189 188 190 191 191 194 197 201
223 225 229 229 230 233 233 233 225 217 227 235 230 230 229 222 221 223 224 227 232 226 226 227 212 207 220 220 214 217 218 216 218 219 219 218 215 214 217 218 222 229 233 238 241 240 235 228 221 214 211 214 214 212 210 207 206 207 207 206 204 202 199 196 194 193 193 196 196 196 195 195 196 193 189 188 188 188 189 190 192 195 198 202 209 217
231 235 239 235 232 230 228 229 219 214 224 229 227 227 227 224 220 221 224 223 223 225 224 222 210 206 228 231 219 222 226 221 220 222 222 221 218 216 219 221 223 228 233 239 243 238 229 220 213 209 208 209 209 209 206 202 201 203 204 203 202 200 197 195 195 195 196 198 198 197 196 197 197 195 192 191 190 191 193 194 196 200 205 213 225 232
238 239 239 234 230 224 221 229 228 224 226 221 218 218 221 226 219 219 227 220 218 226 227 221 210 206 226 234 230 233 229 218 217 221 220 218 217 217 220 222 223 225 231 238 239 231 222 215 210 207 208 208 206 206 205 200 199 201 202 201 200 198 198 197 197 197 199 199 199 198 198 198 198 197 196 196 196 198 199 200 203 208 216 226 237 239
239 235 233 232 230 219 216 228 235 233 224 215 217 214 213 220 216 216 223 219 220 227 226 221 215 218 230 232 237 242 226 216 220 220 214 212 213 215 218 220 223 228 231 233 230 223 217 213 208 207 209 209 206 205 204 201 199 200 201 201 200 199 198 198 198 198 199 200 201 201 199 198 198 198 198 199 202 204 207 209 211 216 223 230 239 239
238 238 234 231 231 219 209 216 224 226 219 215 219 213 209 211 209 216 222 222 224 227 230 229 221 224 231 230 240 246 225 216 219 213 207 208 211 214 218 220 224 228 228 225 223 218 214 210 207 207 209 210 207 205 204 203 202 201 201 200 200 200 199 199 200 201 202 202 203 203 201 201 201 203 205 206 208 209 210 213 215 220 225 229 235 235
228 236 231 224 227 221 213 215 217 217 216 220 222 215 212 208 206 216 220 220 224 228 235 233 225 224 224 227 244 246 223 214 217 212 207 210 212 212 216 219 221 223 221 222 221 214 209 208 206 207 210 211 208 205 205 206 205 204 203 201 201 201 200 201 203 205 206 206 206 206 205 204 206 210 212 213 213 213 213 215 219 223 227 230 231 230
222 232 232 225 223 220 221 225 219 214 220 226 223 216 217 213 208 214 216 213 217 228 236 230 226 226 222 228 245 239 213 207 214 216 212 212 212 213 217 219 221 222 221 221 218 209 207 207 205 206 209 211 209 208 207 208 206 205 205 203 202 203 203 205 207 209 209 208 208 209 208 207 209 213 214 215 215 215 217 218 220 223 227 230 229 227
223 233 237 231 228 224 222 224 217 211 217 222 218 214 216 212 206 209 217 219 215 223 233 225 217 222 223 229 239 232 213 208 213 216 213 211 212 216 221 222 223 223 220 221 221 214 210 208 207 207 207 208 209 210 210 209 207 206 206 205 204 205 206 208 211 212 211 210 210 210 210 210 213 214 215 215 215 217 219 219 221 225 228 229 228 226
226 233 238 231 234 236 226 222 224 216 210 211 215 214 212 211 210 209 212 220 218 222 232 225 210 214 221 226 231 230 220 213 215 215 214 214 215 220 225 225 226 223 217 219 221 216 212 211 211 208 207 208 211 212 212 211 209 208 207 207 206 208 211 212 214 215 213 213 214 212 211 212 214 215 214 215 216 218 218 219 222 226 229 229 229 227
224 231 239 230 231 238 225 219 228 229 219 213 212 212 209 211 216 216 213 213 214 218 230 232 218 214 219 222 225 227 225 222 220 218 218 222 223 224 224 223 224 220 218 222 222 217 214 213 212 210 211 214 215 213 212 211 209 209 211 212 211 212 213 214 216 217 217 216 216 215 212 212 214 216 215 215 217 217 218 220 223 226 228 230 229 226
224 226 235 232 228 229 220 215 220 227 226 217 215 219 218 212 210 215 216 213 210 213 220 225 222 221 224 226 228 228 227 227 226 223 223 225 226 227 226 227 227 223 224 226 223 218 214 212 212 211 214 218 217 214 211 208 207 210 213 216 215 214 214 216 219 221 221 219 216 214 212 212 215 216 216 216 215 216 218 221 222 224 227 228 227 225
226 225 228 232 235 227 221 217 213 217 218 212 212 219 222 219 214 214 218 215 210 211 215 218 222 228 230 230 232 229 223 223 228 230 227 225 226 229 231 234 233 230 229 227 223 220 215 211 210 210 213 217 216 213 210 209 210 213 215 218 218 216 214 217 220 221 222 220 216 212 210 212 216 217 216 215 214 215 217 218 219 223 225 226 226 222
225 224 223 226 233 225 220 217 207 206 210 208 210 213 215 216 211 210 219 221 216 214 215 215 219 231 237 234 234 230 223 224 233 238 232 223 220 224 230 235 236 235 233 231 229 224 216 210 210 212 213 211 211 211 211 213 217 220 222 223 222 217 216 218 220 221 222 221 218 214 212 214 216 216 215 213 213 215 215 216 218 223 225 226 225 222
223 221 219 221 222 215 217 218 206 200 201 205 212 214 214 215 210 209 219 221 217 217 218 216 218 228 237 238 235 232 228 227 233 239 236 225 214 213 219 229 237 240 238 237 235 228 220 214 212 211 207 206 210 215 217 220 223 225 226 226 223 220 220 221 219 219 220 218 215 214 215 215 215 213 212 213 215 215 214 216 221 225 226 227 226 223
224 221 220 221 222 218 221 225 219 215 212 211 218 220 217 217 213 213 218 215 212 218 220 219 223 226 231 237 236 229 226 228 229 228 225 222 215 210 213 224 236 241 239 235 229 223 219 215 211 206 204 207 214 219 222 226 228 229 229 229 227 225 225 224 220 219 220 218 215 214 215 213 211 210 210 211 214 214 215 219 224 227 228 228 227 224
225 223 219 215 218 220 223 229 230 225 221 218 221 224 224 221 217 218 221 216 215 221 219 217 224 227 226 230 231 227 225 229 229 220 215 216 215 214 217 225 234 238 236 229 218 213 217 220 218 217 219 221 222 224 227 229 229 228 228 229 228 226 227 227 224 222 223 222 220 219 218 216 214 214 214 215 216 218 221 222 223 228 230 229 226 222
223 223 219 211 211 214 219 226 229 225 222 222 223 225 227 226 223 221 219 217 220 223 220 217 219 219 218 222 227 230 229 224 223 222 219 217 218 220 223 229 235 236 232 226 217 214 220 224 225 228 231 229 229 230 230 228 226 224 223 224 223 222 223 224 223 223 224 224 223 221 221 220 220 220 220 220 220 222 223 222 225 232 234 229 224 221
220 222 221 215 211 215 222 228 231 227 224 223 224 227 226 224 224 220 218 221 222 222 225 224 214 207 211 219 222 225 225 220 223 231 233 229 228 226 224 223 227 225 221 222 219 215 216 218 223 232 234 230 230 228 224 221 220 220 218 217 216 217 218 219 219 220 221 222 219 217 216 216 218 219 219 220 221 223 225 228 231 233 229 225 223 222
218 221 223 219 218 225 233 233 231 228 226 223 223 225 226 225 222 215 218 225 221 219 226 224 214 207 210 215 214 217 223 223 225 232 240 239 229 217 208 202 204 206 206 209 213 214 214 217 226 237 238 234 230 223 214 211 213 215 214 212 211 212 213 214 216 216 216 216 214 213 214 213 214 216 219 221 224 225 228 231 229 225 224 224 224 224
216 222 224 223 226 232 236 233 228 225 224 223 222 223 223 224 222 218 223 228 224 223 222 214 212 214 216 219 221 224 228 226 219 220 227 229 218 208 205 205 213 221 210 200 206 214 218 224 229 233 237 238 229 214 207 206 208 211 211 210 210 210 210 210 210 211 212 213 214 216 216 215 214 215 218 223 227 227 227 224 219 218 222 224 223 224
220 224 224 222 225 229 232 235 233 225 218 217 219 223 222 221 222 222 223 224 223 224 218 208 209 218 224 227 227 227 227 223 221 227 233 232 227 221 219 228 238 240 230 220 214 210 218 228 228 225 230 233 223 206 204 205 205 205 206 206 207 208 208 208 208 209 211 213 216 218 219 220 219 218 219 222 224 224 222 219 217 219 222 223 223 224
222 222 224 219 218 224 229 232 232 221 212 209 217 229 230 224 223 226 227 226 226 225 218 211 213 221 228 229 226 226 225 221 225 233 232 232 232 226 223 230 237 238 235 234 227 211 208 214 212 209 223 231 224 207 202 204 201 200 203 206 208 209 210 210 210 211 213 214 217 219 220 222 223 222 222 223 223 223 222 221 222 223 222 222 223 223
220 220 225 218 213 220 223 222 224 218 206 204 217 235 241 233 225 227 232 233 229 222 216 217 221 224 227 229 229 230 227 225 232 231 225 227 227 217 217 225 229 234 238 240 233 218 210 213 217 222 226 229 223 207 201 203 198 198 203 207 209 210 212 214 214 215 216 218 219 220 222 223 223 223 222 222 223 224 222 222 222 222 221 221 222 224
218 215 220 215 209 216 220 220 226 224 216 217 227 235 239 233 223 222 229 232 231 226 223 224 224 223 224 226 230 232 229 226 228 224 222 228 226 217 219 225 227 229 232 233 229 221 219 225 234 240 233 226 221 211 207 205 200 198 204 208 209 209 211 214 215 217 220 222 223 223 224 225 224 224 223 223 223 223 222 222 222 222 222 223 226 230
219 210 212 210 204 213 222 224 226 226 222 226 231 233 233 229 220 218 224 229 230 227 225 223 218 217 221 224 225 226 223 219 218 219 223 227 226 222 223 227 229 227 225 227 228 229 232 237 244 247 238 229 224 219 214 213 211 209 210 212 212 211 212 216 219 222 223 225 226 225 225 226 226 224 223 224 224 224 225 225 225 226 227 228 230 233
220 217 217 214 208 209 211 212 220 225 218 216 223 230 230 226 218 211 216 223 220 214 215 216 211 211 215 217 216 216 216 216 219 225 229 230 229 227 228 233 235 231 229 231 234 238 242 246 249 248 243 238 234 226 219 218 221 221 219 218 219 221 226 231 232 230 228 228 229 227 227 228 227 226 226 227 228 228 229 230 231 232 233 234 236 239
221 224 224 218 216 215 214 216 219 215 207 204 212 221 223 225 224 214 211 222 222 214 211 212 212 211 211 212 212 213 215 218 226 235 238 238 237 235 236 238 238 237 238 238 240 245 248 249 249 247 246 247 242 231 223 221 224 225 224 222 224 231 239 241 241 240 238 236 235 232 232 232 231 232 233 233 234 235 235 236 237 237 239 241 243 245
222 225 225 222 223 222 218 217 212 205 209 213 213 212 210 216 224 220 213 219 225 219 211 209 212 214 214 213 213 213 216 223 236 246 246 243 241 239 238 240 239 237 235 232 235 242 245 246 246 245 245 246 242 233 228 225 223 224 228 230 230 235 240 241 246 249 248 245 241 239 238 236 236 237 237 237 238 241 242 243 243 244 244 245 247 249
224 225 225 224 228 224 215 213 216 218 221 220 219 222 220 217 223 222 216 218 225 223 215 211 215 219 220 218 219 223 229 236 242 244 242 238 237 236 236 238 235 228 224 227 233 237 238 239 241 242 240 237 235 234 233 231 228 228 235 239 238 241 242 242 246 249 249 249 248 247 245 241 241 243 244 244 246 246 246 246 246 248 249 250 251 253
230 231 228 225 228 225 217 217 224 227 225 223 226 233 234 232 230 225 220 223 223 220 216 214 217 221 223 223 227 234 240 241 240 239 235 232 234 234 233 234 232 229 232 237 239 238 238 239 240 239 235 231 232 233 232 231 230 233 239 244 245 248 250 250 250 249 249 250 250 251 250 248 249 251 251 251 251 250 250 250 250 252 255 256 256 257
234 235 234 230 228 227 224 225 230 231 229 229 232 237 241 240 232 224 227 230 222 215 216 217 218 223 226 226 232 240 241 236 234 234 231 231 234 236 234 234 235 236 238 239 237 236 238 239 237 237 235 232 234 236 235 234 235 236 241 244 246 249 251 253 254 253 252 251 250 250 250 250 252 253 253 253 254 255 256 257 257 259 259 259 259 261
234 236 234 230 229 228 226 228 234 235 232 231 235 238 239 234 225 223 230 230 219 213 217 219 219 224 228 227 232 239 240 233 229 228 227 227 230 232 233 233 235 236 236 236 235 236 237 237 236 238 240 239 239 241 241 241 242 242 243 246 248 250 252 254 256 257 257 256 254 254 253 253 253 253 255 256 258 260 261 263 264 264 264 263 262 262
234 237 236 232 232 231 227 229 234 235 235 239 242 239 231 226 227 230 230 225 216 213 216 219 219 219 219 220 224 228 229 225 222 222 223 224 228 233 236 237 238 239 239 239 239 239 241 242 242 244 247 248 247 248 247 247 249 250 250 251 252 253 254 256 258 259 260 259 259 260 259 259 260 260 261 263 266 266 266 267 267 267 267 267 266 264
228 230 231 229 230 228 226 229 232 233 242 251 249 238 230 229 230 228 222 216 211 208 207 211 215 212 208 211 217 218 217 217 217 219 222 225 231 236 239 242 244 246 246 246 247 246 246 247 247 248 250 252 253 254 253 252 253 254 254 256 256 256 257 258 259 261 262 262 263 264 265 265 267 267 267 268 269 268 268 269 269 268 268 269 269 268
231 228 224 226 229 228 228 231 233 235 245 252 242 230 228 228 225 219 216 216 216 212 208 209 214 213 208 210 217 220 220 223 224 225 227 231 235 238 242 246 247 248 249 250 251 251 250 250 251 252 253 254 256 258 259 258 257 258 259 260 260 260 261 262 262 264 265 265 266 266 267 268 269 270 270 269 267 268 269 269 269 269 269 269 268 269
236 225 218 224 229 228 225 224 225 231 241 240 223 215 216 216 214 212 213 217 220 219 216 214 216 218 218 221 226 231 233 236 238 238 239 242 245 247 248 249 249 250 252 254 255 256 254 254 256 256 257 259 259 260 262 262 262 263 264 264 264 264 265 265 265 266 268 269 269 269 269 270 270 270 270 269 268 268 269 269 269 270 270 269 269 269
227 222 223 224 220 217 216 215 216 221 225 215 202 200 201 201 203 205 207 213 217 219 219 220 221 224 229 233 236 241 244 245 246 248 249 250 252 252 252 254 256 256 258 260 262 261 260 260 261 261 262 263 263 263 263 264 264 265 265 266 267 268 268 268 268 269 269 270 270 270 270 271 271 271 271 270 269 269 270 269 269 269 269 269 268 268
238 239 236 227 222 223 222 220 220 217 212 208 203 202 204 203 204 208 212 216 217 217 221 225 226 229 234 237 240 245 250 250 250 251 252 251 252 253 254 256 258 259 261 264 265 265 265 266 266 266 266 266 266 266 266 266 266 266 267 268 269 269 269 270 271 271 271 271 270 270 270 271 271 271 271 271 271 270 270 269 269 269 269 268 268 267
240 240 237 235 234 229 221 219 220 216 214 216 213 212 214 213 212 215 218 220 221 221 223 226 229 233 237 239 239 243 249 250 248 247 248 249 250 251 252 255 258 261 263 265 265 266 266 267 267 268 269 269 268 268 269 269 269 269 270 270 271 271 271 272 272 272 272 272 272 272 272 272 272 272 272 271 271 270 270 270 269 269 269 269 269 269
236 236 238 236 231 226 221 220 221 221 227 229 224 219 220 219 218 221 223 224 226 227 229 233 237 241 244 244 245 247 249 250 248 246 247 249 250 252 254 257 260 261 262 264 265 265 265 266 267 269 270 270 270 271 271 272 272 273 273 274 274 274 274 274 274 273 274 274 274 274 274 274 273 273 272 272 271 271 270 270 270 270 270 269 269 269
237 235 237 232 228 229 229 225 223 226 232 232 227 224 226 227 227 229 232 234 235 235 237 241 245 248 248 248 248 250 251 252 251 250 251 253 254 256 259 260 261 262 263 265 266 266 267 268 269 270 271 272 272 272 273 273 274 275 275 276 276 276 276 275 275 275 275 276 276 276 276 276 276 275 275 275 274 273 272 271 270 271 271 271 271 270
242 236 235 233 232 230 223 219 221 226 232 232 228 228 232 232 232 233 236 239 239 240 241 243 246 249 250 250 249 249 249 251 252 253 255 257 259 261 262 261 262 263 265 266 267 268 269 270 271 272 272 272 273 273 274 274 275 275 276 276 276 276 276 276 277 277 277 277 278 278 278 278 278 278 278 278 277 277 276 275 273 272 272 272 272 272